Theta_e
327 322 326 323 310 311 303 304 311 310 312 315 319 315 315 318 313 309 335 339 339 342 344 346 347 348 348 347 348 346 344 342 340 340 340 339 339 339 340 342 343 343 342 339 338 338 338 337 337
320 321 325 318 305 303 303 307 307 312 316 319 319 318 317 316 325 327 332 338 341 342 344 345 345 349 348 347 348 346 344 342 339 339 339 338 339 339 341 342 342 343 342 339 338 337 336 335 335
319 320 319 311 307 301 303 307 311 315 317 317 317 321 319 318 327 330 336 338 341 341 344 345 345 348 348 348 347 345 344 342 339 338 338 338 339 338 340 342 342 341 341 338 338 336 335 334 334
320 322 317 310 303 304 305 309 313 315 315 317 319 315 323 329 329 334 338 338 339 340 343 343 346 347 348 348 347 346 344 342 340 338 337 336 337 338 340 341 340 340 340 337 337 336 334 334 333
322 319 309 307 305 307 307 310 316 314 313 316 317 312 318 328 334 337 335 338 337 338 341 344 344 346 346 347 347 345 344 342 341 338 336 335 335 337 337 339 338 337 337 337 336 336 334 332 332
318 315 308 305 305 307 309 313 316 313 313 316 315 315 320 329 332 335 334 337 337 335 339 342 338 341 344 345 346 345 343 342 340 338 335 335 334 335 336 337 337 335 335 336 337 335 333 332 331
315 312 307 305 306 305 309 315 313 313 312 313 320 312 321 327 333 334 335 337 335 336 337 340 343 341 337 340 341 342 342 341 340 339 337 336 335 333 334 334 334 334 334 334 336 335 333 331 330
314 314 305 306 305 304 310 312 313 313 312 320 323 311 314 327 334 335 334 333 334 335 334 336 340 342 343 344 334 336 338 338 338 336 333 331 331 331 331 331 334 334 333 332 332 334 333 331 328
312 311 308 307 305 307 309 310 311 314 315 319 322 320 324 330 333 330 327 328 330 331 332 334 337 340 342 342 338 332 332 333 332 331 327 327 333 332 330 328 331 332 332 330 329 330 331 329 327
312 311 311 312 312 310 310 309 311 311 313 315 318 323 326 330 329 326 324 323 325 327 330 331 335 337 339 339 341 341 339 338 337 336 334 332 332 331 329 325 327 329 329 330 328 326 324 324 327
311 310 311 309 310 312 311 308 311 311 310 315 315 320 325 327 327 327 325 323 324 327 329 329 331 335 337 337 337 340 339 337 337 335 333 332 330 330 329 329 327 328 322 326 327 326 327 326 327
309 310 310 310 309 310 309 311 307 311 313 314 319 321 325 325 325 327 326 326 324 325 329 329 330 331 334 335 337 337 337 336 334 334 332 330 329 328 326 326 326 326 327 327 327 327 327 326 326
310 310 307 309 308 309 309 309 310 310 315 313 315 316 321 324 326 329 329 330 328 325 327 330 329 330 331 333 333 334 334 334 333 332 330 329 327 327 326 324 324 324 325 326 326 326 325 325 325
313 311 311 312 310 309 308 310 309 315 318 313 312 317 319 323 325 327 328 328 328 328 328 330 330 329 330 331 332 332 332 331 332 331 329 329 328 327 325 324 323 323 325 326 325 325 324 324 324
310 308 310 311 312 312 310 308 306 315 313 313 316 317 318 321 324 325 328 328 329 330 329 329 330 330 329 330 331 331 331 330 329 330 330 329 329 328 327 325 323 323 324 326 325 325 325 324 324
307 307 299 306 311 312 311 304 314 316 311 312 315 317 318 319 322 325 327 328 330 331 330 330 328 330 329 329 330 331 331 330 329 329 329 329 329 329 328 327 325 325 326 326 324 323 322 323 323
303 294 296 298 310 309 308 304 311 314 310 312 314 313 314 317 321 324 327 328 329 330 331 330 330 328 329 329 330 330 331 331 330 329 328 328 328 329 329 328 327 328 327 326 324 323 322 322 323
293 294 297 297 304 307 304 304 309 313 312 312 314 315 314 312 315 321 325 328 329 330 331 331 331 330 329 329 329 329 330 330 331 330 328 327 327 328 329 328 328 328 327 326 325 323 324 323 324
298 296 295 298 304 303 302 304 307 310 311 310 311 312 313 314 317 318 321 327 328 329 330 330 329 330 331 329 327 326 326 327 328 330 329 329 327 326 328 328 327 327 326 326 325 324 323 323 325
299 297 297 300 303 302 302 301 305 307 308 309 310 311 312 314 316 316 316 321 326 327 328 330 330 330 330 331 330 327 327 326 327 328 329 329 328 327 326 327 326 327 325 326 326 324 323 324 326
298 296 296 296 299 301 299 296 299 304 307 308 310 312 312 313 314 317 319 317 322 325 327 328 330 330 331 331 331 329 328 326 325 325 327 328 329 329 327 327 328 327 326 325 325 325 324 322 325
292 299 297 297 295 290 298 288 297 300 302 305 308 310 311 313 315 316 316 318 319 324 328 328 329 330 331 331 330 328 326 324 325 326 328 329 330 328 328 328 329 328 327 326 327 326 325 325 322
294 298 297 297 294 293 293 290 293 299 297 300 304 306 309 311 313 313 315 316 318 320 326 329 328 329 331 331 331 330 328 328 329 329 329 330 330 330 329 329 330 329 329 328 328 325 326 327 325
299 297 296 296 294 284 290 289 290 294 297 299 302 305 307 309 312 313 315 317 317 319 319 325 326 327 330 331 331 330 329 328 329 329 328 329 330 327 330 329 330 330 330 328 328 328 326 326 325
297 293 284 283 282 282 290 289 291 297 299 300 302 305 307 309 310 310 311 312 315 317 318 319 321 323 328 330 331 331 331 330 329 329 328 328 327 326 326 328 328 329 330 330 329 328 327 325 324
293 293 285 278 279 283 288 285 291 300 302 304 304 305 306 307 308 308 309 310 312 312 313 315 316 320 324 327 329 330 330 330 330 330 330 328 328 327 328 326 326 328 328 328 328 327 325 326 324
293 290 294 285 284 283 287 291 296 298 298 300 301 303 304 306 307 305 306 308 306 306 307 309 310 315 320 324 327 328 330 330 329 330 331 330 330 327 329 327 324 325 325 325 326 325 324 324 324
295 297 286 287 279 277 283 285 287 292 294 298 299 301 303 303 303 304 303 303 304 305 306 307 308 308 314 319 324 325 327 329 330 330 330 330 330 330 328 328 326 324 324 324 324 323 323 322 322
290 289 290 289 286 280 278 283 293 293 295 296 299 299 301 301 303 302 303 305 305 304 306 306 306 307 310 314 319 323 325 327 328 329 329 329 329 329 327 327 326 324 322 323 321 321 321 320 321
294 291 291 284 281 285 283 283 295 295 296 297 298 300 302 303 304 304 304 304 303 305 306 306 307 306 309 311 316 320 323 325 326 326 328 329 327 328 327 326 325 324 323 322 320 320 320 320 319
Wind_Speed
15 7 2 1 2 1 4 4 1 6 7 2 3 3 2 4 4 5 5 7 11 11 10 11 9 11 13 14 13 13 12 13 14 14 14 14 14 14 13 13 13 15 17 17 17 16 16 16 16
11 4 1 1 2 1 5 3 5 4 4 6 5 2 2 3 3 6 10 6 12 11 10 11 9 11 13 13 13 13 13 12 13 14 14 14 13 13 13 14 14 15 16 16 16 16 15 15 16
6 4 2 3 2 6 4 2 5 6 6 3 2 1 2 3 2 10 4 13 12 11 10 10 8 11 13 13 13 13 12 12 12 13 14 14 13 13 11 14 14 14 15 15 15 15 15 15 16
5 2 3 1 5 4 3 2 3 9 3 1 1 2 3 1 2 5 12 13 12 10 10 11 9 10 11 13 13 13 12 12 13 13 13 14 12 10 11 13 14 14 13 14 14 14 14 15 14
2 2 2 2 4 3 1 3 7 7 1 2 2 2 1 4 4 8 12 11 11 10 9 11 9 9 10 12 13 14 13 12 13 12 13 13 11 10 9 12 13 12 11 11 13 13 13 14 14
1 3 3 3 4 3 2 6 8 5 2 3 3 1 2 4 7 9 10 11 10 10 8 9 7 7 10 11 12 13 13 12 12 13 12 11 11 11 10 10 12 11 11 11 12 13 13 13 13
3 2 1 2 3 4 4 9 8 7 4 3 1 2 3 7 7 11 10 9 9 9 8 8 9 9 7 8 8 10 11 12 12 12 11 10 10 10 11 10 11 11 11 11 11 12 12 12 11
3 3 4 4 6 3 6 7 3 7 5 3 3 1 3 9 13 12 8 8 8 8 9 9 9 10 11 10 7 8 8 9 10 10 10 10 10 8 7 7 8 11 11 11 11 10 11 11 10
1 5 7 5 6 4 7 8 3 1 5 5 7 1 4 11 15 11 10 9 9 7 9 9 10 9 9 10 10 8 7 7 8 9 9 9 7 8 9 8 7 9 10 10 10 10 9 9 8
5 5 6 2 7 6 8 6 7 6 8 7 6 6 8 14 14 14 14 13 13 13 11 11 11 11 10 7 10 10 9 8 7 8 10 6 7 6 5 7 7 8 8 8 8 8 7 7 4
3 10 2 1 3 4 9 8 7 6 7 9 10 12 13 16 15 15 15 14 15 14 11 12 12 12 12 10 6 6 6 6 6 8 8 6 5 6 5 5 6 6 6 5 6 6 4 4 2
7 3 3 1 3 2 3 2 6 10 5 2 5 5 14 16 18 19 16 15 13 15 15 14 13 12 12 8 8 8 7 7 6 8 9 6 5 6 5 5 6 5 5 5 5 3 4 4 3
9 6 3 0 1 2 3 4 5 9 10 6 4 8 12 14 17 16 15 14 14 15 15 16 15 13 11 11 9 9 9 8 8 8 9 7 6 6 6 5 5 5 5 5 4 4 4 4 4
7 7 5 4 2 3 5 6 4 6 13 9 8 10 12 15 14 14 16 17 17 16 16 14 16 15 13 12 12 9 8 9 8 8 8 10 7 6 6 6 6 5 5 4 4 4 4 4 4
3 6 5 7 5 6 4 10 15 16 7 10 14 14 12 14 13 19 18 18 17 17 16 17 15 16 15 14 12 10 8 9 8 8 10 11 9 8 8 6 6 6 5 6 5 5 4 4 4
6 5 12 6 8 5 8 22 14 6 10 14 14 13 11 13 16 18 17 16 16 16 19 18 14 16 17 15 12 10 10 9 9 9 9 12 12 11 9 7 7 6 6 6 5 5 5 5 4
7 10 14 10 10 5 15 16 15 6 9 14 13 11 12 13 16 17 16 17 18 18 18 19 20 19 20 17 13 13 13 11 10 9 9 13 13 12 10 8 7 8 7 6 6 5 6 5 5
10 10 8 10 6 11 15 16 18 14 10 12 13 13 13 14 18 17 16 16 16 17 17 17 16 19 18 14 13 11 11 11 11 11 11 14 12 14 11 9 9 9 7 8 7 8 6 5 5
5 14 11 4 6 6 15 18 18 19 18 18 18 17 17 17 16 15 15 14 16 17 17 19 19 19 14 13 13 12 13 12 13 13 16 15 14 15 14 10 11 10 10 10 10 8 9 7 6
14 12 9 6 4 5 14 20 17 21 22 20 20 20 20 19 19 16 16 16 17 17 20 20 20 19 18 13 13 13 13 12 12 12 14 16 17 16 14 14 12 13 10 12 11 11 8 8 7
18 16 13 11 5 11 12 26 23 21 25 22 22 22 21 21 22 21 17 18 17 19 20 20 21 22 21 21 13 12 10 11 11 12 13 15 18 17 18 17 13 13 12 11 12 12 13 8 8
16 9 8 10 6 9 2 16 17 9 13 12 12 16 18 20 20 21 20 18 18 18 18 22 22 23 21 23 17 20 16 14 14 14 13 14 18 18 18 17 16 15 11 13 12 11 12 11 9
9 6 10 11 11 12 18 13 7 13 14 17 16 17 18 18 18 19 18 17 17 16 16 18 20 21 22 21 22 17 19 14 11 12 16 17 15 19 18 18 18 16 13 14 14 13 14 10 10
9 7 4 4 5 10 16 14 17 17 18 16 18 17 16 15 14 14 15 14 15 14 14 16 20 21 21 21 23 24 23 21 14 15 13 13 13 13 18 18 17 16 15 15 14 14 15 13 12
13 14 4 7 7 10 1 13 23 6 6 9 13 13 13 11 11 13 14 12 12 14 15 15 19 21 20 21 23 24 26 23 23 19 15 16 13 13 17 18 18 15 17 16 14 14 15 15 13
14 18 6 8 6 4 2 13 10 2 5 12 15 15 13 11 10 11 15 13 11 11 13 15 17 20 20 20 23 22 25 16 17 20 15 14 14 15 18 17 19 21 18 18 16 12 13 13 13
13 16 5 1 2 3 6 13 19 18 20 21 16 17 18 15 10 13 14 9 9 9 12 13 15 17 19 20 19 21 21 24 19 22 19 15 17 14 17 19 19 20 20 20 17 13 14 13 14
8 10 5 4 6 7 10 13 15 13 7 2 9 12 7 5 10 12 9 9 10 11 11 11 12 16 18 18 18 18 21 22 21 19 21 20 18 19 18 19 20 20 19 20 19 16 14 14 13
8 11 6 3 5 6 6 8 18 18 10 15 11 4 11 12 11 10 12 11 11 11 10 10 11 14 15 16 18 20 19 20 20 20 20 21 20 19 19 19 19 19 19 19 18 18 15 17 16
18 16 17 9 9 7 9 12 11 11 5 4 4 10 12 10 14 16 16 15 14 16 15 15 13 11 13 14 16 18 19 19 20 20 21 20 20 19 19 18 18 18 18 18 19 19 14 17 17
Wind_Direction
320 323 278 246 244 131 106 125 57 141 159 97 134 224 328 8 346 30 131 132 148 143 142 146 139 133 129 125 121 116 113 108 106 102 98 95 96 98 107 99 87 92 96 92 91 88 86 83 81
318 307 230 117 316 0 90 115 178 122 80 127 140 195 199 65 63 108 146 166 159 147 149 147 142 137 136 136 132 122 114 110 108 105 100 98 96 104 103 95 90 93 98 93 93 91 88 87 84
316 319 313 53 4 44 55 190 139 112 114 165 166 307 24 69 98 152 102 152 155 152 151 133 149 144 139 141 137 128 123 119 115 109 105 101 100 107 99 103 93 94 100 101 95 92 91 90 87
329 196 124 16 78 87 40 129 140 147 159 174 312 187 146 21 151 154 139 157 159 156 156 140 149 149 140 142 138 132 130 124 119 111 104 102 101 95 94 95 93 90 95 102 99 95 94 91 90
333 261 135 113 104 109 140 146 168 168 123 167 180 77 69 111 125 142 151 165 160 161 160 159 153 151 146 146 144 142 137 130 122 118 114 112 112 107 96 96 100 101 96 102 103 99 98 93 91
247 296 206 190 131 128 166 164 163 195 149 135 230 222 106 114 148 152 158 172 164 159 167 157 154 146 146 151 151 147 140 133 125 128 125 120 118 120 115 107 108 117 106 107 110 106 102 97 94
297 254 165 154 147 168 153 165 186 183 169 196 61 258 98 169 148 160 160 171 170 159 167 173 168 158 144 144 147 144 142 136 135 135 131 119 113 125 127 127 132 125 111 105 114 115 109 102 100
312 266 180 190 199 149 144 176 194 191 166 105 196 312 85 156 150 155 156 168 174 171 173 177 176 177 171 162 137 135 135 138 137 129 125 116 115 109 98 114 125 128 120 110 103 115 116 112 108
266 239 225 192 182 146 146 202 168 116 159 201 175 171 59 142 150 155 163 177 181 197 186 181 183 184 179 173 155 142 134 131 128 131 123 147 148 154 164 77 112 121 121 115 110 110 117 114 106
237 245 241 213 182 164 160 202 168 209 188 198 184 154 135 152 169 175 184 188 194 193 193 187 189 189 186 177 173 177 165 175 177 172 169 170 164 159 143 121 109 102 100 108 118 122 129 195 155
191 240 322 300 328 184 165 176 171 190 224 229 211 184 168 166 189 198 202 202 199 192 197 196 190 193 196 186 185 188 188 189 186 183 179 169 167 166 174 152 159 153 180 157 163 164 176 157 164
217 242 278 9 26 333 194 125 185 206 213 20 206 174 176 183 192 204 208 205 202 200 199 197 198 195 199 203 194 196 200 197 193 191 185 179 183 185 183 179 171 180 185 171 182 171 162 168 168
219 202 221 284 301 276 295 226 279 239 241 189 179 177 206 211 210 206 205 209 203 209 203 200 198 199 201 207 206 204 207 202 199 194 191 195 192 188 188 187 187 189 183 190 186 179 181 180 186
186 206 224 241 216 238 254 248 240 223 235 226 216 227 215 216 219 215 211 207 204 207 208 206 203 201 198 205 209 207 207 205 201 200 201 204 199 194 194 194 200 199 201 192 202 197 195 195 203
154 216 222 224 220 235 221 236 236 251 242 252 248 245 237 222 211 222 220 218 209 203 201 207 207 205 202 203 203 210 210 207 208 205 205 206 207 201 199 197 205 210 201 201 202 202 207 213 207
211 240 242 199 199 212 212 258 236 255 229 248 251 245 240 245 230 228 225 224 217 216 205 199 198 204 209 207 203 209 212 213 211 209 206 209 209 207 202 202 204 199 202 209 210 207 209 222 218
207 240 231 254 205 214 211 259 254 254 232 255 261 258 252 250 249 247 238 225 219 217 214 206 200 201 204 209 209 210 214 217 215 212 212 211 210 211 210 209 207 194 204 209 213 214 226 214 213
199 218 218 226 190 226 237 247 263 251 241 252 266 262 255 247 250 248 239 237 232 222 222 219 213 210 202 203 213 212 211 218 218 215 214 212 212 210 211 210 208 203 205 209 209 219 212 233 229
253 225 232 232 228 251 246 252 252 263 262 262 255 257 261 257 256 251 243 237 232 230 224 219 214 214 202 201 203 207 210 210 215 216 216 213 212 210 211 213 209 205 210 211 208 211 217 219 222
222 227 225 252 246 256 269 263 251 261 258 253 257 258 256 263 257 245 239 231 225 231 228 226 222 213 211 209 205 208 209 217 214 213 216 214 212 211 210 212 211 209 212 214 208 207 209 228 208
220 225 233 250 309 269 282 277 260 242 259 254 250 251 259 258 259 259 242 235 226 223 224 226 225 218 213 216 213 216 221 217 209 216 213 213 212 208 207 211 211 211 211 212 211 208 212 215 213
228 201 239 247 277 262 7 284 276 260 254 256 243 241 246 251 255 258 262 251 238 236 225 220 221 220 217 212 213 213 215 208 212 209 210 208 207 210 210 209 210 213 209 213 211 210 213 216 224
238 161 216 232 240 270 257 271 250 245 254 260 257 252 253 253 255 261 260 259 257 250 237 233 232 228 222 213 213 210 218 224 223 215 211 209 205 208 208 208 207 208 210 213 210 206 209 214 218
143 138 138 174 228 244 240 236 269 249 255 251 257 254 259 260 261 268 274 279 274 265 248 242 239 234 224 218 215 217 217 219 217 213 210 206 205 207 211 210 209 207 207 208 209 210 210 209 212
181 174 188 206 206 243 289 209 252 285 296 281 267 263 268 265 283 285 282 285 277 268 257 245 242 241 231 223 221 220 222 219 221 216 209 206 205 203 210 206 210 209 210 207 205 206 210 211 215
194 188 195 207 206 212 128 224 256 63 278 271 267 278 288 279 282 289 290 295 285 295 289 271 255 248 241 230 226 224 224 224 222 220 213 214 209 210 204 202 212 214 209 209 206 206 211 207 213
188 213 218 354 104 262 221 253 277 262 259 257 261 269 278 294 322 339 330 324 314 324 305 300 282 265 256 245 235 231 225 227 222 222 219 213 213 209 207 200 204 213 213 209 204 208 207 206 213
186 157 163 178 216 234 246 254 255 246 278 131 254 319 311 347 338 339 344 321 309 309 307 304 289 276 265 254 244 236 231 228 228 226 221 216 217 212 205 201 199 204 211 209 206 208 207 206 212
165 195 207 201 208 235 263 243 248 274 268 257 278 335 338 341 346 327 320 315 301 287 276 283 292 287 267 256 247 241 237 232 228 227 222 217 215 211 209 204 200 198 204 207 206 205 197 204 210
217 202 194 200 198 242 271 271 263 279 170 201 309 350 344 329 322 314 302 295 293 299 301 299 297 288 279 270 256 244 238 233 231 230 227 221 217 214 211 207 206 202 201 202 202 203 199 202 207